Location: Newark
(51.2625°N, 13.3939°E)
Time: 07:16:54
(UTC+00:00)

Transit 2A Rocket - Pass Details

Date: 01 December 2019
Orbit: 594 x 909 km, 66.7° (Epoch: 07 December)

Event Time Altitude Azimuth Distance (km) Brightness Sun altitude
Rises 19:13:15 0° 243° (WSW) 2,953 8.6 -38.2°
Reaches altitude 10° 19:15:45 10° 253° (WSW) 2,008 7.7 -38.6°
Enters shadow 19:15:50 10° 253° (WSW) 1,980 7.7 -38.6°
